Weather in Malodel'skaya

Russia / Volgograd Oblast     50°11′16″N   43°53′31″E
temp.,
°C
wind,
m/s
gust,
m/s
humid.,
%
clouds,
%
prec.,
mm/h
press.,
hPa
HPBL,
m
10 august, wed
wed1000:00+24ese11350 0.0 101711
03:00+22ese22385 0.0 101713
06:00+23e23395 0.0 101743
09:00+31e34275 0.0 1017781
12:00+34ene44207 0.0 10163444
15:00+34e531910 0.0 10153592
18:00+32e662422 0.0 1014960
21:00+26ene45353 0.0 101561
11 august, thu
thu1100:00+23ene354327 0.0 101578
03:00+23ne375144 0.0 1015120
06:00+23ene4651100 0.0 1015117
09:00+28ene3539100 0.1 1016290
12:00+33ese7625100 0.0 10152072
15:00+34e552595 0.0 10151410
18:00+30ene711399 0.0 1015632
21:00+23ne4952100 0.0 1016191
12 august, fri
fri1200:00+23ene8156066 0.1 1018455
03:00+21ene486839 0.1 1018249
06:00+21ene51173100 0.0 1019286
09:00+28ene6844100 0.0 1019654
12:00+33e663123 0.0 10191450
15:00+34ene66275 0.0 10182082
18:00+32ene66315 0.0 10181232
21:00+26ne6134614 0.0 1019309
13 august, sat
sat1300:00+24ene6145022 0.0 1019357
03:00+22ene5125437 0.0 1019254
06:00+23ene5125147 0.0 1019297
09:00+29e68354 0.0 1019691
12:00+34e76263 0.0 10191658
15:00+35ene65242 0.0 10172270
18:00+32ene77292 0.0 10171184
21:00+26ene713385 0.0 1018347
14 august, sun
sun1400:00+24ene614425 0.0 1018333
03:00+22ene513415 0.0 1018261
06:00+22ene512395 0.0 1018291
09:00+29e78250 0.0 1019728
12:00+32e65200 0.0 10171854
15:00+33ene54200 0.0 10162472
18:00+31ene66210 0.0 10161016
21:00+25ene513310 0.0 1017255